Regional Weather Roundup
Issued by NWS Green Bay, WI

Home | Current Version | Previous Version | Text Only | Print | Product List | Glossary On
Versions: 1 2 3 4 5 6 7 8 9 10 11 12 13 14 15 16 17 18 19 20 21 22 23 24 25 26 27 28 29 30 31 32 33 34 35 36 37 38 39 40 41 42 43 44 45 46 47 48 49 50
000
ASUS43 KGRB 261011
RWRGRB

NORTH-CENTRAL AND NORTHEAST WISCONSIN REGIONAL WEATHER ROUNDUP
NATIONAL WEATHER SERVICE GREEN BAY WI
400 AM CST SUN FEB 26 2017

WIZ005-009-010>012-018-019-261100-
NORTH CENTRAL WISCONSIN

CITY           SKY/WX    TMP DP  RH WIND       PRES   REMARKS
IRONWOOD       FLURRIES  22  17  81 SW10      29.68F
MANITOWISH WTR CLOUDY    18  15  86 S12       29.69F WCI   5
ARBOR VITAE    CLEAR     19  15  82 S9          N/A  WCI   8
EAGLE RIVER    CLEAR     17  11  78 SW7       29.72F WCI   7
LAND O LAKES   MOCLDY    18  13  82 SW6       29.71F WCI   9
RHINELANDER    MOCLDY    17  11  77 S8        29.73F WCI   7
PHILLIPS       CLOUDY    19  15  84 S8        29.71F WCI   9
ANTIGO         CLOUDY    18  14  83 SW12      29.78F WCI   6
TOMAHAWK       FLURRIES  18  13  82 CALM      29.75F
MERRILL        NOT AVBL
$$

WIZ013-073-261100-
NORTHEAST WISCONSIN

CITY           SKY/WX    TMP DP  RH WIND       PRES   REMARKS
IRON MOUNTAIN  CLOUDY    20  10  65 S7        29.76F
MARINETTE      CLOUDY    18  13  80 SW7       29.88F WCI   9
OCONTO         CLOUDY    19  12  73 SW8       29.89S WCI   9
$$

WIZ017-030-035>037-045-261100-
CENTRAL WISCONSIN

CITY           SKY/WX    TMP DP  RH WIND       PRES   REMARKS
MEDFORD        CLOUDY    19  14  81 S9        29.75F WCI   8
WAUSAU         LGT SNOW  19  15  84 S12       29.78F FOG     WCI   7
MOSINEE        CLOUDY    19  18  93 S7        29.80F
MARSHFIELD     CLOUDY    20  13  74 S12       29.78F WCI   8
WISC RAPIDS    CLOUDY    21  15  78 S8        29.85F
STEVENS POINT  CLOUDY    19  14  80 S7        29.83F WCI   9
WAUPACA        CLOUDY    22  15  75 S6        29.88F
SHAWANO        CLOUDY    20  15  81 CALM      29.87F
CLINTONVILLE   CLOUDY    21  16  79 S7        29.87F
WAUTOMA        FLURRIES  20  15  81 S5        29.89F
$$

WIZ038-039-048-051-261100-
FOX VALLEY

CITY           SKY/WX    TMP DP  RH WIND       PRES   REMARKS
NWS GREEN BAY  LGT SNOW  21  18  88 SW9       29.90F FOG
APPLETON       CLOUDY    21  16  79 S8        29.88F
OSHKOSH        CLOUDY    20  13  74 S8        29.90F
FOND DU LAC    CLOUDY    20  12  71 S6        29.92F
$$

WIZ022-050-052-261100-
EAST CENTRAL WISCONSIN

CITY           SKY/WX    TMP DP  RH WIND       PRES   REMARKS
EPHRAIM        CLOUDY    21  17  85 SW8       29.87S
WASHINGTON ISL CLOUDY    24  16  73 SW15      29.87R
STURGEON BAY   CLOUDY    21  14  74 SW15G23   29.89F WCI   8
MANITOWOC      CLOUDY    21  14  74 W12       29.93S WCI   9
SHEBOYGAN      PTCLDY    20  12  71 SW9       29.94S WCI   9
$$

LMZ563-521-522-541>543-261100-
LAKESHORE

STATION/POSITION TIME  TEMP    WIND        PRES    VSBY  WAVE
                       AIR SEA DIR/SP/G                  HT/PER
                 (UTC) (F)     (DEG/KT/KT) (MB)    (MI)  (FT/S)
SHEBOYGAN LKSHOR 1000   22     220/  9/ 10 1015.1F
KEWAUNEE LKSHORE 0948   22     240/  6/ 12 1012.7R
ALGOMA MARINA    0856          230/  8/ 15   N/A
NORTHPORT PIER   0940   22        CALM     1011.5S
SISTER BAY LKSHO 0920   21        CALM       N/A
MENOMINEE LKSHOR 0948   20     210/ 11/ 13 1011.0F
$$



USA.gov is the U.S. government's official web portal to all federal, state and local government web resources and services.